438  
ASUS42 KMLB 280004  
RWRMLB  
HOURLY WEATHER ROUNDUP AROUND FLORIDA  
NATIONAL WEATHER SERVICE OFFICE MELBOURNE FL  
800 PM EDT TUE JUN 27 2017  
 
CITY SKY/WX TMP DP RH WIND PRES REMARKS
 
MELBOURNE CLOUDY 79 75 87 W7 30.00R  
FORT PIERCE LGT RAIN 76 74 93 N3 29.97F FOG  
ORLANDO INTL TSTM 71 71 100 NW6 30.02R  
DAYTONA BEACH TSTM 81 77 88 CALM 30.00R  
VERO BEACH LGT RAIN 78 77 96 NW7 29.98S FOG  

   
..ELSEWHERE ACROSS CENTRAL FLORIDA
 
 
 
CITY SKY/WX TMP DP RH WIND PRES REMARKS
 
TITUSVILLE MOCLDY 73 73 100 VRB5 30.00  
ORLANDO EXEC MOCLDY 75 74 96 S6 30.01S  
LEESBURG MOCLDY 77 74 90 SE9 30.01F  
THE VILLAGES FOG 75 73 94 MISG 29.91R VSB 1  
SANFORD LGT RAIN 76 73 91 SW5 30.01R FOG  
DELAND MOCLDY 81 75 83 E8 29.99S THUNDER  
NEW SMYRNA BCH LGT RAIN 79 75 89 SE6 30.01R  
WINTER HAVEN CLOUDY 74 70 87 E12 30.01R  
KISSIMMEE LGT RAIN 74 73 97 W3 30.03R  
OKEECHOBEE FAIR 77 70 78 E5 29.99R  
TAMPA MOCLDY 86 72 62 NW12 29.98R  

   
..NORTHERN FLORIDA
 
 
 
CITY SKY/WX TMP DP RH WIND PRES REMARKS
 
PALM COAST PTCLDY 79 75 89 E8 30.03R VSB 1/2  
ST AUGUSTINE LGT RAIN 75 73 93 E7 30.02S FOG  
OCALA FAIR 81 72 74 N6 30.00R  
GAINESVILLE CLOUDY 74 72 93 NE6 30.01R  
JACKSONVILLE NOT AVBL  
TALLAHASSEE LGT RAIN 75 73 93 VRB5 29.99S  

   
..ALONG THE SOUTHEAST COAST TO THE KEYS
 
 
 
CITY SKY/WX TMP DP RH WIND PRES REMARKS
 
STUART PTCLDY 82 70 65 SE9 29.98R THUNDER  
WEST PALM BCH MOCLDY 84 74 71 SE7 29.97R  
MIAMI MOCLDY 83 74 74 SE5 29.97R  
KEY WEST FAIR 87 76 69 N6 29.97R  

   
..MARINE REPORTS
 
 
 
STATION/POSITION TIME TEMP WIND PRES WAVE SWELL
 
AIR SEA DIR/SP/G HT/PER HT/PER  
(UTC) (F) (DEG/KT/KT) (MB) (FT/S) (FT/S)  
ST AUGUSTINE FP 2300 76 80 60/ 11/ 13 1016.0F  
20NM E CAPE CANA 2350 82 85 80/ 6/ 8 1016.2R 1/ 8 2/ 8  
120 E NEW SMYRNA 2350 80 84 60/ 4/ 6 1014.9F 3/ 7 2/ 7  
TRIDENT PIER 2324 77 78 40/ 2/ 2 1016.9  
SEBASTIAN INLET 0000 75 320/ 7 1016.0  
4NM E PORT CANAV 2351 77 N/A 1/ 8  
6NM NE FPR INLET 2330 80 N/A 1/ 8  
SETTLEMENT PT GB 2300 84 170/ 4/ 5 1014.8S  

 
 
 
CLICK HERE TO GO TO PREVIOUS BULLETINS.

The Nexlab FL Page Main Text Page